Overview Statistics Trail Chart Weather Telemetry Raw packets
 

This is the latest recevied weather packets stored in our database for station/object AI5BL. If no packets are shown the sender has not sent any weather packets the latest 10 day(s).

<< 1 2 3 4 5 6 >>
Time Temp. Humidity Pressure Rain* Wind** Luminosity Snow
1788645058 31.67° C 64% 1014.3 hPa 0 mm - 82 W/m² -
1788644755 31.67° C 67% 1014.1 hPa 0 mm - 80 W/m² -
1788644454 32.22° C 63% 1014.3 hPa 0 mm - 66 W/m² -
1788644150 32.22° C 62% 1014.3 hPa 0 mm - 57 W/m² -
1788643845 32.22° C 61% 1014.4 hPa 0 mm - 46 W/m² -
1788643545 32.22° C 62% 1014.5 hPa 0 mm - 46 W/m² -
1788643245 32.22° C 61% 1014.4 hPa 0 mm - 60 W/m² -
1788642954 32.22° C 62% 1014.7 hPa 0 mm - 84 W/m² -
1788642636 31.67° C 62% 1014.5 hPa 0 mm - 72 W/m² -
1788642332 31.67° C 63% 1014.5 hPa 0 mm - 104 W/m² -
1788642032 31.67° C 65% 1014.6 hPa 0 mm - 73 W/m² -
1788641731 31.67° C 65% 1014.5 hPa 0 mm - 105 W/m² -
1788641430 32.22° C 62% 1014.6 hPa 0 mm - 108 W/m² -
1788641125 32.22° C 61% 1014.7 hPa 0 mm - 71 W/m² -
1788640821 31.67° C 62% 1014.9 hPa 0 mm - 68 W/m² -
1788640520 31.67° C 65% 1014.8 hPa 0 mm - 55 W/m² -
1788640216 32.22° C 66% 1014.6 hPa 0 mm - 68 W/m² -
1788639911 32.22° C 66% 1014.8 hPa 0 mm - 98 W/m² -
1788639606 31.67° C 66% 1014.9 hPa 0 mm - 76 W/m² -
1788639301 32.22° C 64% 1015 hPa 0 mm - 156 W/m² -
1788639001 32.22° C 65% 1015.1 hPa 0 mm - 88 W/m² -
1788638697 31.67° C 67% 1014.9 hPa 0 mm - 114 W/m² -
1788638395 31.67° C 67% 1014.9 hPa 0 mm - 128 W/m² -
1788638090 32.22° C 64% 1015.1 hPa 0 mm - 296 W/m² -
1788637786 32.22° C 65% 1015.1 hPa 0 mm - 218 W/m² -

* Rain latest hour (hover to see other rain measurements)
** Current wind speed in m/s (hover to see current wind gust speed)